星链-4392 (STARLINK-4392 )

导读 | 星芒AI

STARLINK-4392 是 SpaceX Starlink 卫星互联网项目中的一颗低轨卫星,属于第 5 批次发射的星链卫星群。该卫星运行在约 550 公里的高度,旨在为全球用户提供高速、低延迟的互联网服务。它采用先进的通信技术,支持 Ku 和 Ka 频段,具备自动避撞功能,以确保太空安全。作为星链计划的重要组成部分,STARLINK-4392 有助于扩大网络覆盖范围,特别是在偏远和网络基础设施薄弱的地区。

基本信息
目录编号:
53489
目录名称:
STARLINK-4392
国际标识:
2022-099AA
轨道中心:
EARTH
卫星名称:
星链-4392
卫星全名:
星链-4392 (STARLINK-4392 )
卫星状态:
在轨 (已飞行1227 天)
发射日期:
2022-08-12 UTC
国别 :
美国 (US)
星等 :
--
轨道信息
数据来源 国际轨道数据
星历时间: 2025-12-21T02:45:55+0800
12小时前
查看轨道信息
半长轴: 6941.151km
偏心率: 0.0000474
轨道倾角: 97.601°
近地点辐角 196.301°
升交点赤经 112.940°
平近点角 163.820°
近地点: 562.684km
远地点: 563.344km
周期: 95.919分钟
每日圈数: 15.012589
详细信息
固有亮度:
5
最大亮度:
2.5
卫星平台:
Starlink v1.5
覆盖范围:
全球
运营商:
太空探索技术公司
运营商所在国:
美国
制造商(研发单位):
太空探索技术公司
制造商所在国:
美国
使用方式:
暂无
卫星简介
星链(Starlink)计划是由太空探索技术公司(SpaceX)提出的一个巨型低轨卫星互联网星座项目,计划在2019年至2024年间在太空搭建由约1.2万颗卫星组成的“星链”网络,其中1584颗将部署在地球上空550千米处的近地轨道,并从2020年开始工作。该卫星仍在工作。
2D轨道图
3D轨道图
轨道高度分析图
轨道倾角分析图
轨道综合分析图
查看轨道综合分析图